This is the latest recevied weather packets stored in our database for station/object K7FRY. If no packets are shown the sender has not sent any weather packets the latest 10 day(s).
| Time | Temp. | Humidity | Pressure | Rain* | Wind** | Luminosity | Snow |
|---|---|---|---|---|---|---|---|
| 1778054712 | 15° C | 51% | 1015.8 hPa | 0 mm | - | 0 W/m² | - |
| 1778054409 | 15.56° C | 49% | 1016 hPa | 0 mm | - | 0 W/m² | - |
| 1778054107 | 16.11° C | 47% | 1016 hPa | 0 mm | - | 0 W/m² | - |
| 1778053803 | 16.11° C | 48% | 1016 hPa | 0 mm | - | 0 W/m² | - |
| 1778053500 | 15.56° C | 47% | 1015.9 hPa | 0 mm | - | 0 W/m² | - |
| 1778053198 | 15° C | 50% | 1015.6 hPa | 0 mm | - | 0 W/m² | - |
| 1778052895 | 15° C | 50% | 1015.9 hPa | 0 mm | - | 0 W/m² | - |
| 1778052592 | 15° C | 53% | 1015.9 hPa | 0 mm | - | 0 W/m² | - |
| 1778052289 | 15° C | 53% | 1016.1 hPa | 0 mm | - | 0 W/m² | - |
| 1778051988 | 14.44° C | 54% | 1016.2 hPa | 0 mm | - | 0 W/m² | - |
| 1778051685 | 15° C | 54% | 1016.2 hPa | 0 mm | - | 0 W/m² | - |
| 1778051382 | 15° C | 53% | 1016 hPa | 0 mm | - | 0 W/m² | - |
| 1778051079 | 15.56° C | 51% | 1015.9 hPa | 0 mm | - | 0 W/m² | - |
| 1778050776 | 15.56° C | 50% | 1015.8 hPa | 0 mm | - | 0 W/m² | - |
| 1778050474 | 16.11° C | 49% | 1015.8 hPa | 0 mm | - | 0 W/m² | - |
| 1778050170 | 16.11° C | 50% | 1015.5 hPa | 0 mm | - | 0 W/m² | - |
| 1778049866 | 16.11° C | 50% | 1015.6 hPa | 0 mm | - | 0 W/m² | - |
| 1778049563 | 16.11° C | 49% | 1015.4 hPa | 0 mm | - | 0 W/m² | - |
| 1778049260 | 16.67° C | 48% | 1015.5 hPa | 0 mm | - | 0 W/m² | - |
| 1778048958 | 16.67° C | 48% | 1015.5 hPa | 0 mm | - | 0 W/m² | - |
| 1778048657 | 16.67° C | 47% | 1015.6 hPa | 0 mm | - | 0 W/m² | - |
| 1778048352 | 16.67° C | 48% | 1015.8 hPa | 0 mm | - | 0 W/m² | - |
| 1778048049 | 16.67° C | 48% | 1015.5 hPa | 0 mm | - | 0 W/m² | - |
| 1778047747 | 16.67° C | 48% | 1015.8 hPa | 0 mm | - | 0 W/m² | - |
| 1778047445 | 16.67° C | 48% | 1015.4 hPa | 0 mm | - | 0 W/m² | - |
* Rain latest hour (hover to see other rain measurements)
** Current wind speed in m/s (hover to see current wind gust speed)